www.pogodaiklimat.ru

Погода и климат >> Архив погоды >> Мьянма >> Ситтво


ПОГОДА в Ситтво

  • Прогноз погоды в Ситтво
  • Монитор погоды в Ситтво

АРХИВ ПОГОДЫ в Ситтво

Время (UTC), дата Ветер
(напр.,м/с)
 
Видим.   Явления Облачность Т
(С)
Тd
(С)
f
(%)
Тe
(С)
Тes
(С)
Комфортность P
(гПа)
Po
(гПа)
Тmin
(С)
Tmax
(С)
R
(мм)
R24
(мм)
S
(см)
00 12.09 В 5 5000 м дождь 10/8 200 м
[Cb cap As op]
+24.0 +24.0 100 +33 +33 очень
душно
1009.1 1008.5 +19.5 55
03 12.09 В 5 6000 м слаб. морось {дождь} 10/8 200 м
[Cb cap As op]
+25.7 +24.6 94 +36 +36 очень
душно
1011.5 1010.9
06 12.09 ЮВ 3 6000 м 10/8 300 м
[Cb cap Ac As]
+28.0 +25.0 84 +40 +41 очень
душно
1010.8 1010.2
09 12.09 ЮВ 5 5000 м слаб. морось 10/8 200 м
[Cb cap Ac As]
+27.5 +25.6 89 +40 +41 очень
душно
1008.2 1007.6
12 12.09 ЮВ 3 3000 м дождь 10/8 200 м
[Cb cap Ac As]
+25.2 +25.0 99 +36 +36 очень
душно
1009.2 1008.6 +29.5 24
15 12.09 ЮВ 3 3000 м слаб. дождь {морось} 10/8 200 м
[Cb cap As op]
+25.0 +25.0 100 +36 +36 очень
душно
1011.4 1010.8
00 13.09 ЮВ 3 5000 м дождь 10/8 200 м
[Cb cap As op]
+24.5 +24.5 100 +34 +34 очень
душно
1010.2 1009.6 +19.5 212
03 13.09 В 3 6000 м дождь 10/8 200 м
[Cb cap As op]
+24.2 +24.0 99 +33 +34 очень
душно
1012.1 1011.5
06 13.09 Ю 5 6000 м слаб. морось {дождь} 10/8 200 м
[Cb cap As op]
+25.0 +25.0 100 +36 +36 очень
душно
1012.2 1011.6
09 13.09 В 3 6000 м {морось} 10/8 200 м
[Cb cap Ac As]
+26.5 +25.6 95 +39 +39 очень
душно
1009.2 1008.6
12 13.09 В 3 5000 м 8/5 200 м
[Cu Sc Ac trans]
+26.0 +24.6 92 +37 +37 очень
душно
1008.2 1007.6 +29.0 52
15 13.09 В 2 2000 м 5/4 300 м
[Cb cap Ac trans]
+25.3 +25.0 98 +36 +36 очень
душно
1010.3 1009.7
00 14.09 СВ 2 3000 м дымка 6/4 300 м
[Cu Sc Ac As]
+24.0 +24.0 100 +33 +33 очень
душно
1008.4 1007.8 +18.7
03 14.09 В 3 6000 м 9/6 300 м
[Cu Sc Ac trans]
+26.0 +24.6 92 +37 +39 очень
душно
1010.2 1009.6
06 14.09 ЮВ 3 7000 м 10/8 300 м
[Cb cap Ac trans]
+28.2 +25.0 83 +41 +42 опасность
перегрева
1009.3 1008.7
09 14.09 ЮЗ 3 7000 м 4/4 300 м
[Cu Sc]
+29.3 +27.4 90 +47 +52 опасность
перегрева
1006.3 1005.7
12 14.09 З 3 5000 м 4/4 300 м
[Cu Sc]
+28.5 +26.8 91 +45 +45 опасность
перегрева
1006.4 1005.8 +30.0
15 14.09 З 3 3000 м 4/4 300 м
[Cu Sc]
+27.0 +25.6 92 +40 +40 очень
душно
1008.3 1007.7
00 15.09 СВ 2 5000 м 10/8 300 м
[Cu Sc Ac trans]
+25.8 +24.6 93 +36 +36 очень
душно
1007.5 1006.9 +20.6
03 15.09 С 2 6000 м 6/5 300 м
[Cu Sc Ac trans]
+29.0 +25.9 83 +43 +48 опасность
перегрева
1008.3 1007.7
06 15.09 Ю 3 7000 м 8/5 300 м
[Cb cap Ac trans]
+31.2 +26.7 77 +48 +53 опасность
перегрева
1008.3 1007.7
09 15.09 З 10 7000 м 5/4 300 м
[Cu Sc Ac trans]
+30.6 +26.7 80 +48 +48 опасность
перегрева
1004.8 1004.2
12 15.09 З 5 5000 м 8/5 300 м
[Cu Sc Ac trans]
+28.5 +25.9 86 +43 +43 опасность
перегрева
1004.5 1003.9 +31.5
15 15.09 Ю 2 3000 м 5/4 300 м
[Cu Sc Ac trans]
+27.0 +25.6 92 +40 +40 очень
душно
1007.4 1006.8
03 16.09 В 2 6000 м 6/6 300 м
[Cu Sc]
+28.5 +25.9 86 +43 +47 опасность
перегрева
1008.0 1007.4
06 16.09 ЮВ 3 8000 м 5/4 600 м
[Cu Sc Ci sp]
+32.0 +26.5 73 +49 +58 опасность
перегрева
1006.4 1005.8
09 16.09 Ю 3 8000 м 4/3 600 м
[Cb cap As op]
+31.7 +29.2 87 +56 +60 опасность
перегрева
1004.0 1003.4
12 16.09 ЮЗ 2 6000 м 5/3 600 м
[Cb cap Ac trans Ci sp]
+30.3 +26.6 81 +47 +47 опасность
перегрева
1003.6 1003.0 +32.5
15 16.09 СЗ 1 3000 м 4/3 300 м
[Cu Sc Ac trans]
+26.8 +25.6 93 +39 +39 очень
душно
1006.1 1005.5
00 17.09 СВ 1 5000 м дымка 6/5 300 м
[Cu Sc Ac trans]
+26.0 +26.0 100 +39 +39 очень
душно
1006.8 1006.2 +21.0
03 17.09 ЮВ 2 6000 м 4/3 600 м
[Cu Sc Ac trans]
+30.0 +26.6 82 +46 +53 опасность
перегрева
1007.9 1007.3
06 17.09 В 3 7000 м 6/5 600 м
[Cb cap Ac trans]
+32.0 +29.2 85 +56 +63 опасность
перегрева
1007.6 1007.0
09 17.09 Ю 5 7000 м 4/3 600 м
[Cb cap]
+31.5 +29.2 88 +55 +58 опасность
перегрева
1005.6 1005.0
12 17.09 ЮЗ 5 6000 м 5/4 300 м
[Cb cap Ac trans]
+30.0 +28.2 90 +50 +50 опасность
перегрева
1005.9 1005.3 +32.6
15 17.09 ЮЗ 2 3000 м 4/4 600 м
[Cb cap]
+28.4 +26.8 91 +44 +44 опасность
перегрева
1008.3 1007.7
00 18.09 С 2 5000 м дымка 8/5 300 м
[Cu Sc Ac trans]
+27.0 +25.6 92 +40 +40 очень
душно
1008.8 1008.2 +21.5
03 18.09 С 3 7000 м 6/6 300 м
[Sc]
+30.0 +26.6 82 +46 +50 опасность
перегрева
1010.5 1009.9
06 18.09 СВ 3 8000 м 4/4 300 м
[Cu Sc]
+31.5 +28.2 83 +52 +62 опасность
перегрева
1009.4 1008.8
09 18.09 З 3 8000 м 3/3 300 м
[Cu Sc]
+31.8 +28.1 81 +53 +58 опасность
перегрева
1007.9 1007.3
12 18.09 ЮЗ 3 6000 м 5/5 300 м
[Cu Sc]
+30.6 +26.7 80 +48 +48 опасность
перегрева
1007.4 1006.8 +32.3
15 18.09 штиль 0 3000 м 5/4 300 м
[Cb cap Ac trans]
+29.0 +27.4 91 +47 +47 опасность
перегрева
1010.1 1009.5

 

Местоположение метеостанции Ситтво (Мьянма): широта 20.13 долгота 92.88 высота над уровнем моря 5 м.

В архиве по умолчанию представлена погода в Ситтво за последнюю неделю. Архивные данные за месяц целиком и за предыдущие месяцы, начиная с января 2011 года, Вы можете получить, выбрав интересующий диапазон дат из раскрывающегося списка и нажав кнопку "Ввод!".


*Определитесь, кто Вы:
робот инопланетянин человек

Внимание! Время в таблицах - всемирное. Для получения местного времени необходимо прибавить поправку, которая равна 6.5 ч.

Смотрите также архив погоды в соседних городах и на ближайших метеорологических станциях:

Погода в Кяуктаве (Мьянма) (84 км)
Погода в Текнафе (Бангладеш) (102 км)
Погода в Кяокпю (Мьянма) (106 км)
Погода в Манаунге (Мьянма) (168 км)
Погода в Кокс-Базаре (Бангладеш) (175 км)
Погода в Миндате (Мьянма) (178 км)
Погода в Минбу (Мьянма) (209 км)
Погода в Магуэе (Мьянма) (216 км)
Погода в Кутапдии (Бангладеш) (216 км)
Погода в Чау (Мьянма) (219 км)

Пояснения к столбцам:

Ветер - указаны скорость ветра в м/с - средняя за 10 мин, порывы в срок и между сроками (в фигурных скобках) и направление, откуда дует ветер: С - северный, СВ - северо-восточный, В - восточный, ЮВ - юго-восточный, Ю - южный, ЮЗ - юго-западный, З - западный, СЗ - северо-западный.
Видимость - горизонтальная дальность видимости в метрах или километрах. При видимости от 1 до 10 км при отсутствии осадков обычно наблюдается дымка, при ухудшении видимости до 1 км и менее - туман. В сухую погоду видимость может ухудшаться дымом, пылью или мглою.
Явления - указаны атмосферные явления, наблюдавшиеся в срок или в последний час перед сроком; фигурными скобками обозначены явления, наблюдавшиеся между сроками (за 1-3 часа до срока); квадратными скобками обозначены град или гололедные отложения с указанием их диаметра в мм.
Облачность - указаны через наклонную черту общая и нижняя облачность в баллах и высота нижней границы облаков в метрах; квадратными скобками обозначены формы облаков: Ci - перистые, Cs - перисто-слоистые, Cc - перисто-кучевые, Ac - высококучевые, As - высокослоистые, Sc - слоисто-кучевые, Ns - слоисто-дождевые, Cu - кучевые, Cb - кучево-дождевые. Подробнее классификацию облаков см. в Атласе облаков (PDF).
T - Температура воздуха - температура, измеренная на высоте 2 м над землей.
Td - Температура точки росы - температура, при понижении до которой содержащийся в воздухе водяной пар достигнет насыщения.
f - Относительная влажность воздуха - влажноcть воздуха, измеренная на высоте 2 м над землей.
Te - Эффективная температура - температура, которую ощущает одетый по сезону человек в тени. Характеристика душности погоды. При расчете учитывается влияние влажности воздуха и скорости ветра на теплоощущения человека.
Tes - Эффективная температура на солнце - температура, которую ощущает человек, с поправкой на солнечный нагрев. Характеристика знойности погоды. Зависит от высоты солнца над горизонтом, облачности и скорости ветра. Ночью, в пасмурную погоду, а также при ветре 12 м/с и более поправка равна нулю.
P - Атмосферное давление - приведенное к уровню моря атмосферное давление.
Po - Атмосферное давление - измеренное на уровне метеостанции атмосферное давление.
Tmin - Минимальная температура - минимум температуры воздуха на высоте 2 м над землей.
Tmax - Максимальная температура - максимум температуры воздуха на высоте 2 м над землей.
R - Количество осадков - Количество выпавших осадков за период времени, мм. При наведении курсора мыши на число - период времени, за который выпало указанное количество осадков.
R24 - Количество осадков - Количество выпавших осадков за 24 часа, мм.
S - Снежный покров - Высота снежного покрова, см. При наведении курсора мыши на число - состояние снежного покрова и степень покрытия местности в баллах.